Regional Weather Roundup
Issued by NWS Charleston, WV

Home | Current Version | Previous Version | Text Only | Print | Product List | Glossary Off
Versions: 1 2 3 4 5 6 7 8 9 10 11 12 13 14 15 16 17 18 19 20 21 22 23 24 25 26 27

000
ASUS41 KRLX 250310
RWRRLX
West Virginia Regional Weather Roundup
National Weather Service Charleston WV
1100 PM EDT WED MAY 24 2017

Note: "fair" indicates few or no clouds below 12,000 feet with no
significant weather and/or obstructions to visibility.

WVZ003-250400-
Northern Panhandle of West Virginia

CITY           SKY/WX    TMP DP  RH WIND       PRES   REMARKS
WHEELING       CLOUDY    58  54  86 SE13      29.50F
$$

WVZ009-250400-
Northwest West Virginia

CITY           SKY/WX    TMP DP  RH WIND       PRES   REMARKS
PARKERSBURG    CLOUDY    63  58  83 SE6       29.49R
$$

WVZ006-250400-
Western West Virginia

CITY           SKY/WX    TMP DP  RH WIND       PRES   REMARKS
HUNTINGTON     PTCLDY    62  56  80 S7        29.44R
$$

WVZ015-250400-
West Central West Virginia

CITY           SKY/WX    TMP DP  RH WIND       PRES   REMARKS
CHARLESTON     CLOUDY    64  57  78 S5        29.45R
$$

WVZ022-031-250400-
North Central West Virginia

CITY           SKY/WX    TMP DP  RH WIND       PRES   REMARKS
CLARKSBURG     LGT RAIN  60  55  83 E17G23    29.51F
MORGANTOWN     LGT RAIN  59  54  83 SE15      29.55F
$$

WVZ025-035-042-045-250400-
Southern West Virginia

CITY           SKY/WX    TMP DP  RH WIND       PRES   REMARKS
BECKLEY        LGT RAIN  57  55  93 SE9       29.54S
LOGAN          CLOUDY    61  59  94 CALM      29.49R
BLUEFIELD      RAIN      55  52  89 CALM      29.55R
LEWISBURG      RAIN      56  55  98 CALM      29.56S
$$

WVZ047-250400-
Northern Mountains of West Virginia

CITY           SKY/WX    TMP DP  RH WIND       PRES   REMARKS
ELKINS         CLOUDY    58  53  84 CALM      29.57F
$$

WVZ052-250400-
Eastern Panhandle of West Virginia

CITY           SKY/WX    TMP DP  RH WIND       PRES   REMARKS
MARTINSBURG    LGT RAIN  58  54  86 SE5       29.68R
PETERSBURG     RAIN      59  58  97 CALM      29.63S
$$




USA.gov is the U.S. government's official web portal to all federal, state and local government web resources and services.